SL-16 DEB, 22423

Orbit data source: Space-Track

SL-16 DEB, 22423 is space debris in LEO originally from a launch on Fri, 25 Dec 1992 UTC launched from the Tyuratam Missile And Space Complex (TTMTR). Debris objects in space refer to the collection of defunct objects orbiting the Earth. Examples of debris include non-operational satellites, rocket bodies, and fragments generated from explosions, collisions, or faulty payload assembly.

Loading next visibility...
Identifier
22423, 1992-093DQ
Orbit
LEO
Country
Flag of CISCIS
Related business
Manufacturer
Unknown
Mission
Spacecraft
Bus & Motor
Unknown
Mass
Unknown
Launch date (UTC)
1992-12-25 (33 years ago)
Launch vehicle
Unknown
Launch site
Tyuratam Missile And Space Complex (TTMTR)
Object type
Payload
Rocket body
Debris
Shape & HBR
Unknown shape, 0.2 m
Radar Cross Section
Medium (>0.1 m² and <1 m²)

Expand to show TLE details & history
Last TLE update: 15 hours ago

TLE from 15 hours ago
0 SL-16 DEB
1 22423U 92093DQ  25351.76604986  .00000038  00000-0  57785-4 0  9995
2 22423  71.2794 237.5808 0100384 205.9227 153.6841 13.95483372676351
Epoch: 2025-12-17T18:23Z
TLE epoch observation values (Epoch: 2025-12-17T18:23:06.707Z)
Latitude
-0.00001°
Longitude
-124.82835°
Altitude
977.6 km
Speed
7.33 km/s
True Right ascension
15h 50m 19s
True Declination
0° 00' 00"
Sunlit
Object was in daylight at epoch
Visualization orbit readout
Latitude
Unknown
Longitude
Unknown
Altitude
Unknown
Speed
Unknown
Apparent Right ascension
Unknown
Apparent Declination
Unknown
Sunlit
N/A
Visualization observer readout
Local Sidereal Time
07:51:14
Azimuth
Unknown
Elevation
Unknown
Doppler factor
Unknown
Orbital elements
Apogee altitude
980.529 km
Perigee altitude
834.259 km
Semi-major axis
7,285.531 km
Eccentricity
0.01004
Inclination
71.2794°
RAAN
237.5808°
Arg. of periapsis
205.9227°
True anomaly
154.18838°
Mean anomaly
153.6841°
Eccentric anomaly
153.9368°
Mean motion
3.49021 °/min
Orbital period
103.15 mins
BSTAR
0.000057785
Loading maneuver chart data...
Computing Atmospheric mass density...

Documentation

Showing up to 5 results
|